Weather in Gatchina

Russia / Saint-Petersburg and Leningrad Oblast     59°34′06″N   30°07′28″E
temp.,
°C
wind,
m/s
gust,
m/s
humid.,
%
clouds,
%
prec.,
mm/h
press.,
hPa
HPBL,
m
8 march, mon
mon800:00−8n51191100 0.2 997926
03:00−9n61191100 0.4 1001880
06:00−10n51191100 0.2 1004814
09:00−11n51090100 0.3 1008636
12:00−10n5885100 0.1 1011603
15:00−9n477981 0.1 1013693
18:00−10nnw378348 0.0 1015443
21:00−13n229569 0.0 101645
9 march, tue
tue900:00−15nnw229644 0.0 101754
03:00−16n129840 0.0 101831
06:00−17ne119877 0.0 101920
09:00−15e239388 0.0 1020208
12:00−13e2380100 0.0 1020396
15:00−11e3571100 0.0 1020490
18:00−12e3677100 0.0 1020520
21:00−16ene4890100 0.0 1022319
10 march, wed
wed1000:00−18ene389317 0.0 1024305
03:00−19ene379628 0.0 1025225
06:00−19e379313 0.0 1026206
09:00−18e36797 0.0 1028195
12:00−13e356988 0.0 1029312
15:00−9e346371 0.0 1029511
18:00−11ene237922 0.0 102975
21:00−15e239012 0.0 102940
11 march, thu
thu1100:00−15se238941 0.0 103036
03:00−16se238920 0.0 102961
06:00−16se37910 0.0 1027172
09:00−13sse411760 0.0 1026407
12:00−9sse611590 0.0 1024750
15:00−7sse611590 0.0 1021749
18:00−8sse613750 0.0 1017630
21:00−9sse6149140 0.1 1014623
12 march, fri
fri1200:00−7sse71589100 0.1 1012750
03:00−8sse71688100 0.2 1008827
06:00−6sse81686100 0.1 10041007
09:00−5sse81790100 0.9 10011232
12:00−4sse91689100 1.1 9981097
15:00−2s81488100 1.4 997912
18:00−2s61392100 0.3 996684
21:00+1ssw4998100 1.2 996512